Location: Taupo
(38.6830°S, 176.0830°E)
Time: 09:53:11
(UTC+13:00)

Cosmos 1763 Rocket - Visible Passes

Search period start: 12 November 2019 00:00
Search period end: 22 November 2019 00:00
Orbit: 733 x 780 km, 74.0° (Epoch: 11 November)

Date Brightness Start Highest point End Pass type
(mag) Time Alt. Az. Time Alt. Az. Time Alt. Az.
12 Nov 4.5 04:08:32 13° NNE 04:12:48 41° ENE 04:17:42 10° SSE visible
13 Nov 5.5 03:29:12 12° NE 03:32:35 22° E 03:36:30 10° SE visible
13 Nov 4.1 05:09:15 10° NW 05:14:03 40° WSW 05:19:00 10° S visible
14 Nov 6.1 02:51:11 10° ENE 02:52:29 11° E 02:53:48 10° ESE visible
14 Nov 3.4 04:29:52 20° NNW 04:33:29 76° WSW 04:38:45 10° SSE visible
15 Nov 3.9 03:50:25 27° N 03:53:02 57° ENE 03:58:11 10° SSE visible
16 Nov 4.9 03:10:56 24° NE 03:12:45 30° E 03:17:15 10° SE visible
16 Nov 4.5 04:50:58 15° WNW 04:54:28 31° WSW 04:59:07 10° S visible
17 Nov 5.6 02:31:24 15° ENE 02:32:35 16° E 02:35:36 10° ESE visible
17 Nov 3.7 04:11:26 30° NW 04:13:49 56° WSW 04:19:00 10° S visible
18 Nov 3.5 03:31:52 48° N 03:33:19 78° ENE 03:38:36 10° SSE visible
18 Nov 5.5 05:13:18 10° W 05:15:48 13° SW 05:18:19 10° SSW visible
19 Nov 4.3 02:52:15 38° ENE 02:52:58 40° ENE 02:57:51 10° SSE visible
19 Nov 4.9 04:32:17 16° W 04:34:54 23° WSW 04:39:07 10° S visible
20 Nov 5.3 02:12:37 21° E 02:12:44 21° E 02:16:38 10° SE visible
20 Nov 4.1 03:52:38 33° WNW 03:54:11 42° WSW 03:59:12 10° S visible
21 Nov 6.0 01:32:56 11° E 01:32:56 11° E 01:33:48 10° E visible
21 Nov 3.3 03:12:57 66° NW 03:13:37 78° WSW 03:18:55 10° SSE visible
